TimeIST,TemperatureF,Dew PointF,Humidity,Sea Level PressureIn,VisibilityMPH,Wind Direction,Wind SpeedMPH,Gust SpeedMPH,PrecipitationIn,Events,Conditions,WindDirDegrees,DateUTC
12:10 AM,77.0,69.8,78,29.80,3.1,NE,12.7,-,N/A,,Haze,50,2013-12-08 18:40:00
12:40 AM,77.0,69.8,78,29.80,3.1,NE,5.8,-,N/A,,Haze,40,2013-12-08 19:10:00
1:10 AM,75.2,69.8,83,29.80,3.1,Variable,2.3,-,N/A,,Haze,0,2013-12-08 19:40:00
1:40 AM,75.2,68.0,78,29.80,3.1,Variable,2.3,-,N/A,,Haze,0,2013-12-08 20:10:00
2:10 AM,75.2,69.8,83,29.77,3.1,Variable,2.3,-,N/A,,Haze,0,2013-12-08 20:40:00
2:30 AM,76,69,74,29.78,2,,2.3,,,,Haze,,2013-12-08 21:00:00
2:40 AM,75.2,69.8,83,29.77,2.5,East,4.6,-,N/A,,Haze,100,2013-12-08 21:10:00
3:10 AM,75.2,69.8,83,29.77,2.5,Variable,2.3,-,N/A,,Haze,0,2013-12-08 21:40:00
3:40 AM,75.2,69.8,83,29.77,2.5,Variable,2.3,-,N/A,,Haze,0,2013-12-08 22:10:00
4:10 AM,75.2,69.8,83,29.77,2.5,Variable,2.3,-,N/A,,Haze,0,2013-12-08 22:40:00
4:40 AM,75.2,69.8,83,29.77,2.5,SE,3.5,-,N/A,,Haze,140,2013-12-08 23:10:00
5:10 AM,75.2,69.8,83,29.77,2.5,Variable,2.3,-,N/A,,Haze,0,2013-12-08 23:40:00
5:30 AM,74,69,79,29.77,2,,2.3,,,,Haze,,2013-12-09 00:00:00
5:40 AM,75.2,69.8,83,29.77,2.5,Variable,2.3,-,N/A,,Haze,0,2013-12-09 00:10:00
6:10 AM,73.4,69.8,88,29.77,2.5,Calm,Calm,-,N/A,,Haze,0,2013-12-09 00:40:00
7:10 AM,73.4,69.8,88,29.80,1.6,Variable,2.3,-,N/A,,Haze,0,2013-12-09 01:40:00
7:40 AM,75.2,71.6,89,29.80,1.6,Variable,1.2,-,N/A,,Haze,0,2013-12-09 02:10:00
8:10 AM,75.2,71.6,89,29.80,1.6,Variable,2.3,-,N/A,,Haze,0,2013-12-09 02:40:00
8:30 AM,76,70,78,29.81,1,WNW,4.6,,,,Haze,290,2013-12-09 03:00:00
8:40 AM,77.0,69.8,78,29.83,1.6,WNW,3.5,-,N/A,,Haze,290,2013-12-09 03:10:00
9:10 AM,77.0,69.8,78,29.83,1.6,WSW,3.5,-,N/A,,Haze,250,2013-12-09 03:40:00
10:10 AM,80.6,71.6,74,29.83,1.9,SW,3.5,-,N/A,,Haze,230,2013-12-09 04:40:00
10:40 AM,82.4,71.6,70,29.83,1.9,WSW,3.5,-,N/A,,Haze,250,2013-12-09 05:10:00
11:10 AM,84.2,71.6,66,29.80,2.5,WNW,5.8,-,N/A,,Haze,290,2013-12-09 05:40:00
11:30 AM,84,71,58,29.80,2,,2.3,,,,Haze,,2013-12-09 06:00:00
11:40 AM,84.2,71.6,66,29.80,2.5,Variable,2.3,-,N/A,,Haze,0,2013-12-09 06:10:00
12:10 PM,84.2,73.4,70,29.77,2.5,WSW,2.3,-,N/A,,Haze,250,2013-12-09 06:40:00
12:40 PM,86.0,71.6,62,29.77,2.5,Calm,Calm,-,N/A,,Haze,0,2013-12-09 07:10:00
1:10 PM,86.0,71.6,62,29.74,2.5,ENE,4.6,-,N/A,,Haze,70,2013-12-09 07:40:00
1:40 PM,86.0,71.6,62,29.71,2.5,ENE,4.6,-,N/A,,Haze,70,2013-12-09 08:10:00
2:10 PM,87.8,73.4,62,29.71,2.5,East,3.5,-,N/A,,Haze,80,2013-12-09 08:40:00
2:30 PM,88,75,57,29.70,2,NE,4.6,,,,Haze,50,2013-12-09 09:00:00
2:40 PM,87.8,75.2,66,29.71,2.5,NE,3.5,-,N/A,,Haze,40,2013-12-09 09:10:00
3:10 PM,87.8,75.2,66,29.68,2.5,East,4.6,-,N/A,,Haze,90,2013-12-09 09:40:00
3:40 PM,87.8,75.2,66,29.68,2.5,East,4.6,-,N/A,,Haze,90,2013-12-09 10:10:00
4:10 PM,86.0,75.2,70,29.68,2.5,ENE,6.9,-,N/A,,Haze,70,2013-12-09 10:40:00
4:40 PM,86.0,73.4,66,29.68,2.5,East,6.9,-,N/A,,Haze,80,2013-12-09 11:10:00
5:10 PM,84.2,73.4,70,29.71,2.5,East,6.9,-,N/A,,Haze,90,2013-12-09 11:40:00
5:30 PM,83,72,63,29.70,2,NE,4.6,,,,Haze,50,2013-12-09 12:00:00
5:40 PM,84.2,71.6,66,29.71,2.5,East,5.8,-,N/A,,Haze,100,2013-12-09 12:10:00
6:10 PM,82.4,71.6,70,29.71,2.5,East,5.8,-,N/A,,Haze,80,2013-12-09 12:40:00
6:40 PM,80.6,73.4,79,29.74,2.5,East,5.8,-,N/A,,Haze,100,2013-12-09 13:10:00
7:10 PM,80.6,73.4,79,29.74,2.5,East,4.6,-,N/A,,Haze,100,2013-12-09 13:40:00
8:10 PM,78.8,71.6,78,29.77,1.9,SSE,3.5,-,N/A,,Haze,150,2013-12-09 14:40:00
8:30 PM,78,72,77,29.77,1,SE,3.5,,,,Haze,140,2013-12-09 15:00:00
8:40 PM,78.8,71.6,78,29.77,1.9,SSE,3.5,-,N/A,,Haze,150,2013-12-09 15:10:00
9:10 PM,77.0,71.6,83,29.80,1.9,South,4.6,-,N/A,,Haze,180,2013-12-09 15:40:00
9:40 PM,77.0,71.6,83,29.80,1.9,South,4.6,-,N/A,,Haze,170,2013-12-09 16:10:00
10:10 PM,77.0,71.6,83,29.80,1.9,South,4.6,-,N/A,,Haze,170,2013-12-09 16:40:00
10:40 PM,75.2,71.6,89,29.80,1.9,SSE,3.5,-,N/A,,Haze,150,2013-12-09 17:10:00
11:10 PM,75.2,71.6,89,29.80,1.9,SSE,3.5,-,N/A,,Haze,150,2013-12-09 17:40:00
11:30 PM,76,72,84,29.80,1,SE,3.5,,,,Haze,140,2013-12-09 18:00:00
11:40 PM,75.2,71.6,89,29.80,1.9,Variable,2.3,-,N/A,,Haze,0,2013-12-09 18:10:00